Princeton, MN

1:43 AM CDT on August 22, 2017 (GMT -0500)
Princeton Municipal

Weather History for KPNM - January, 2013

Change the Weather History Date:

Saturday, January 26, 2013

  Actual Average Record
Temperature  
Mean Temperature 6 °F -  
Max Temperature 21 °F 20 °F 48 °F (2002)
Min Temperature -9 °F 4 °F -23 °F (1997)
Degree Days  
Heating Degree Days 59    
Moisture  
Dew Point -1 °F    
Average Humidity 71    
Maximum Humidity 85    
Minimum Humidity 57    
Precipitation  
Precipitation 0.00 in - - ()
Sea Level Pressure  
Sea Level Pressure 30.22 in    
Wind  
Wind Speed 3 mph (ESE)    
Max Wind Speed 10 mph    
Max Gust Speed -    
Visibility 10 miles    
Events      
Averages and records for this station are not official NWS values.
T = Trace of Precipitation, MM = Missing Value Source: NWS Daily Summary

Daily Weather History Graph

Daily Weather History Graph

Search for Another Location

Airport or City:

Trip Planner

Search our weather history database for the weather conditions in past years. The results will help you decide how hot, cold, wet, or windy it might be!

Date:

Astronomy

Jan. 26, 2013 Rise Set
Actual Time 7:41 AM CST 5:12 PM CST
Civil Twilight 7:09 AM CST 5:44 PM CST
Nautical Twilight 6:33 AM CST 6:20 PM CST
Astronomical Twilight 5:58 AM CST 6:55 PM CST
Moon 5:10 PM CST (1/26) 6:58 AM CST (1/26)
Length of Visible Light 10h 35m
Length of Day
9h 30m
Full, 100% of the Moon is Illuminated
Jan 26
Full
Jan 26
Full
Feb 3
Last Quarter
Feb 10
New
Feb 17
First Quarter

Hourly Weather History & Observations

Time (CST) Temp. Windchill Dew Point Humidity Pressure Visibility Wind Dir Wind Speed Gust Speed Precip Events Conditions
12:11 AM -2.2 °F -10.4 °F -7.6 °F 78% 30.30 in 10.0 mi West 3.5 mph - N/A   Clear
12:32 AM -2.2 °F -12.5 °F -7.6 °F 78% 30.29 in 10.0 mi WNW 4.6 mph - N/A   Clear
12:51 AM -4.0 °F -12.4 °F -9.4 °F 78% 30.30 in 10.0 mi West 3.5 mph - N/A   Clear
1:11 AM -4.0 °F -12.4 °F -9.4 °F 78% 30.30 in 10.0 mi WNW 3.5 mph - N/A   Clear
1:32 AM -2.2 °F - -9.4 °F 71% 30.29 in 10.0 mi Calm Calm - N/A   Clear
1:51 AM -5.8 °F - -9.4 °F 84% 30.29 in 10.0 mi Calm Calm - N/A   Clear
2:11 AM -4.0 °F - -9.4 °F 78% 30.29 in 10.0 mi Calm Calm - N/A   Clear
2:32 AM -5.8 °F - -9.4 °F 84% 30.29 in 10.0 mi Calm Calm - N/A   Clear
2:51 AM -5.8 °F - -9.4 °F 84% 30.29 in 10.0 mi Calm Calm - N/A   Clear
3:11 AM -5.8 °F - -11.2 °F 77% 30.28 in 10.0 mi Calm Calm - N/A   Clear
3:32 AM -5.8 °F - -11.2 °F 77% 30.28 in 10.0 mi Calm Calm - N/A   Clear
3:51 AM -7.6 °F - -11.2 °F 84% 30.27 in 10.0 mi Calm Calm - N/A   Clear
4:11 AM -7.6 °F - -11.2 °F 84% 30.28 in 10.0 mi Calm Calm - N/A   Clear
4:32 AM -7.6 °F - -11.2 °F 84% 30.27 in 10.0 mi Calm Calm - N/A   Clear
4:51 AM -7.6 °F - -13.0 °F 77% 30.28 in 10.0 mi Calm Calm - N/A   Clear
5:11 AM -7.6 °F - -13.0 °F 77% 30.28 in 10.0 mi Calm Calm - N/A   Clear
5:31 AM -9.4 °F - -13.0 °F 84% 30.29 in 10.0 mi Calm Calm - N/A   Clear
5:51 AM -9.4 °F - -13.0 °F 84% 30.29 in 10.0 mi Calm Calm - N/A   Clear
6:11 AM -9.4 °F - -13.0 °F 84% 30.29 in 10.0 mi Calm Calm - N/A   Clear
6:31 AM -7.6 °F - -11.2 °F 84% 30.29 in 10.0 mi Calm Calm - N/A   Clear
6:51 AM -7.6 °F - -11.2 °F 84% 30.29 in 10.0 mi Calm Calm - N/A   Clear
7:11 AM -7.6 °F - -11.2 °F 84% 30.30 in 10.0 mi Calm Calm - N/A   Clear
7:31 AM -7.6 °F - -13.0 °F 77% 30.30 in 10.0 mi Calm Calm - N/A   Scattered Clouds
7:51 AM -7.6 °F - -13.0 °F 77% 30.30 in 10.0 mi Calm Calm - N/A   Clear
8:11 AM -7.6 °F - -11.2 °F 84% 30.31 in 10.0 mi Calm Calm - N/A   Clear
8:32 AM -4.0 °F - -7.6 °F 85% 30.30 in 10.0 mi Calm Calm - N/A   Scattered Clouds
8:51 AM -2.2 °F - -7.6 °F 78% 30.30 in 10.0 mi Calm Calm - N/A   Scattered Clouds
9:11 AM -0.4 °F -8.3 °F -5.8 °F 78% 30.30 in 10.0 mi ESE 3.5 mph - N/A   Mostly Cloudy
9:32 AM 1.4 °F -9.9 °F -4.0 °F 78% 30.31 in 10.0 mi SE 5.8 mph - N/A   Overcast
9:51 AM 3.2 °F -7.8 °F -4.0 °F 72% 30.30 in 10.0 mi SE 5.8 mph - N/A   Mostly Cloudy
10:11 AM 3.2 °F -11.3 °F -2.2 °F 78% 30.28 in 10.0 mi SE 9.2 mph - N/A   Overcast
10:51 AM 8.6 °F 0.1 °F -0.4 °F 67% 30.28 in 10.0 mi SE 4.6 mph - N/A   Overcast
11:11 AM 8.6 °F - -0.4 °F 67% 30.29 in 10.0 mi Calm Calm - N/A   Scattered Clouds
11:32 AM 8.6 °F -1.3 °F -0.4 °F 67% 30.28 in 10.0 mi East 5.8 mph - N/A   Clear
11:51 AM 8.6 °F 0.1 °F -0.4 °F 67% 30.27 in 10.0 mi East 4.6 mph - N/A   Scattered Clouds
12:11 PM 10.4 °F 0.8 °F -0.4 °F 62% 30.27 in 10.0 mi ESE 5.8 mph - N/A   Mostly Cloudy
12:32 PM 10.4 °F 0.8 °F 1.4 °F 67% 30.26 in 10.0 mi East 5.8 mph - N/A   Mostly Cloudy
12:51 PM 10.4 °F 4.0 °F 1.4 °F 67% 30.25 in 10.0 mi ESE 3.5 mph - N/A   Scattered Clouds
1:11 PM 12.2 °F 1.7 °F 1.4 °F 62% 30.25 in 10.0 mi ESE 6.9 mph - N/A   Overcast
1:32 PM 12.2 °F 1.7 °F 1.4 °F 62% 30.22 in 10.0 mi East 6.9 mph - N/A   Scattered Clouds
1:51 PM 12.2 °F -0.2 °F 1.4 °F 62% 30.21 in 10.0 mi ESE 9.2 mph - N/A   Clear
2:11 PM 14.0 °F 1.2 °F 1.4 °F 57% 30.20 in 10.0 mi ESE 10.4 mph - N/A   Scattered Clouds
2:32 PM 14.0 °F 2.9 °F 3.2 °F 62% 30.19 in 10.0 mi ESE 8.1 mph - N/A   Mostly Cloudy
2:51 PM 15.8 °F 4.2 °F 3.2 °F 58% 30.18 in 10.0 mi ESE 9.2 mph - N/A   Mostly Cloudy
3:32 PM 15.8 °F 4.2 °F 3.2 °F 58% 30.18 in 10.0 mi East 9.2 mph - N/A   Clear
3:51 PM 15.8 °F 5.1 °F 3.2 °F 58% 30.17 in 10.0 mi East 8.1 mph - N/A   Clear
4:11 PM 15.8 °F 3.4 °F 3.2 °F 58% 30.17 in 10.0 mi East 10.4 mph - N/A   Scattered Clouds
4:32 PM 15.8 °F 4.2 °F 5.0 °F 62% 30.14 in 10.0 mi East 9.2 mph - N/A   Scattered Clouds
4:51 PM 15.8 °F 7.2 °F 5.0 °F 62% 30.15 in 10.0 mi East 5.8 mph - N/A   Clear
5:11 PM 17.6 °F 8.2 °F 5.0 °F 58% 30.15 in 10.0 mi East 6.9 mph - N/A   Clear
5:31 PM 17.6 °F 9.3 °F 6.8 °F 63% 30.13 in 10.0 mi East 5.8 mph - N/A   Scattered Clouds
5:51 PM 17.6 °F 10.7 °F 6.8 °F 63% 30.14 in 10.0 mi East 4.6 mph - N/A   Clear
6:11 PM 17.6 °F 8.2 °F 6.8 °F 63% 30.13 in 10.0 mi ESE 6.9 mph - N/A   Clear
6:31 PM 17.6 °F 7.3 °F 6.8 °F 63% 30.12 in 10.0 mi ESE 8.1 mph - N/A   Scattered Clouds
6:51 PM 17.6 °F 6.4 °F 6.8 °F 63% 30.11 in 10.0 mi SE 9.2 mph - N/A   Mostly Cloudy
7:11 PM 17.6 °F 7.3 °F 8.6 °F 68% 30.12 in 10.0 mi SE 8.1 mph - N/A   Overcast
7:31 PM 17.6 °F 7.3 °F 8.6 °F 68% 30.12 in 10.0 mi SE 8.1 mph - N/A   Overcast
7:51 PM 19.4 °F 8.6 °F 8.6 °F 63% 30.10 in 10.0 mi SE 9.2 mph - N/A   Overcast
8:11 PM 19.4 °F 9.5 °F 8.6 °F 63% 30.10 in 10.0 mi SE 8.1 mph - N/A   Overcast
8:31 PM 19.4 °F 9.5 °F 8.6 °F 63% 30.10 in 10.0 mi SE 8.1 mph - N/A   Scattered Clouds
8:51 PM 19.4 °F 14.3 °F 8.6 °F 63% 30.12 in 10.0 mi ESE 3.5 mph - N/A   Clear
9:11 PM 19.4 °F 9.5 °F 8.6 °F 63% 30.11 in 10.0 mi SE 8.1 mph - N/A   Clear
9:31 PM 21.2 °F 11.7 °F 10.4 °F 63% 30.10 in 10.0 mi SE 8.1 mph - N/A   Clear
9:51 PM 21.2 °F 12.6 °F 10.4 °F 63% 30.09 in 10.0 mi SE 6.9 mph - N/A   Clear
10:11 PM 21.2 °F 12.6 °F 10.4 °F 63% 30.09 in 10.0 mi ESE 6.9 mph - N/A   Clear
10:31 PM 21.2 °F 14.9 °F 10.4 °F 63% 30.10 in 10.0 mi East 4.6 mph - N/A   Clear
10:51 PM 21.2 °F 16.4 °F 10.4 °F 63% 30.10 in 10.0 mi East 3.5 mph - N/A   Clear
11:11 PM 21.2 °F 14.9 °F 10.4 °F 63% 30.09 in 10.0 mi ESE 4.6 mph - N/A   Clear
11:31 PM 19.4 °F 14.3 °F 10.4 °F 68% 30.09 in 10.0 mi East 3.5 mph - N/A   Clear
11:52 PM 19.4 °F 14.3 °F 10.4 °F 68% 30.09 in 10.0 mi East 3.5 mph - N/A   Clear